Satellite-Ground Cal/Val Region Overpasses Predictions

Prediction of Satellite NPP Overpassing Cal/Val Region: PacNW

Region Location: (Latitude: 10.00, Longitude: 139.50) to (Latitude: 22.70, Longitude: 165.60).

Table of predicted overpasses for the next 14.0 days since TLE Epoch: 6/26/2015
Interval Starting Time Starting Location Ending Time Ending Location
1 06/27/2015 02:14:47 ( 19.39, 165.59) 06/27/2015 02:15:43 ( 22.68, 164.78)
2 06/27/2015 03:53:37 ( 10.00, 142.42) 06/27/2015 03:57:06 ( 22.28, 139.51)
3 06/27/2015 14:43:59 ( 22.69, 165.01) 06/27/2015 14:47:35 ( 10.01, 162.00)
4 06/27/2015 16:25:29 ( 22.68, 139.63) 06/27/2015 16:25:37 ( 22.21, 139.51)
5 06/28/2015 03:34:34 ( 10.00, 147.17) 06/28/2015 03:38:10 ( 22.69, 144.16)
6 06/28/2015 16:06:27 ( 22.68, 144.39) 06/28/2015 16:10:03 ( 10.00, 141.38)
7 06/29/2015 03:15:32 ( 10.00, 151.93) 06/29/2015 03:19:08 ( 22.68, 148.92)
8 06/29/2015 15:47:24 ( 22.69, 149.14) 06/29/2015 15:51:00 ( 10.01, 146.13)
9 06/30/2015 02:56:29 ( 10.00, 156.69) 06/30/2015 03:00:05 ( 22.68, 153.68)
10 06/30/2015 15:28:22 ( 22.69, 153.90) 06/30/2015 15:31:58 ( 10.01, 150.89)
11 07/01/2015 02:37:27 ( 10.00, 161.44) 07/01/2015 02:41:03 ( 22.68, 158.43)
12 07/01/2015 15:09:20 ( 22.69, 158.66) 07/01/2015 15:12:56 ( 10.01, 155.65)
13 07/02/2015 02:19:09 ( 12.65, 165.59) 07/02/2015 02:22:00 ( 22.69, 163.19)
14 07/02/2015 03:59:54 ( 10.01, 140.82) 07/02/2015 04:01:31 ( 15.71, 139.51)
15 07/02/2015 14:50:17 ( 22.69, 163.41) 07/02/2015 14:53:53 ( 10.01, 160.41)
16 07/03/2015 03:40:52 ( 10.01, 145.58) 07/03/2015 03:44:28 ( 22.69, 142.57)
17 07/03/2015 14:34:19 ( 11.89, 165.59) 07/03/2015 14:34:51 ( 10.01, 165.16)
18 07/03/2015 16:12:45 ( 22.68, 142.79) 07/03/2015 16:16:20 ( 10.06, 139.80)
19 07/04/2015 03:21:49 ( 10.01, 150.34) 07/04/2015 03:25:25 ( 22.70, 147.33)
20 07/04/2015 15:53:42 ( 22.68, 147.55) 07/04/2015 15:57:17 ( 10.06, 144.56)
21 07/05/2015 03:02:47 ( 10.01, 155.09) 07/05/2015 03:06:23 ( 22.70, 152.08)
22 07/05/2015 15:34:40 ( 22.68, 152.31) 07/05/2015 15:38:15 ( 10.06, 149.31)
23 07/06/2015 02:43:44 ( 10.02, 159.85) 07/06/2015 02:47:19 ( 22.64, 156.85)
24 07/06/2015 15:15:37 ( 22.67, 157.06) 07/06/2015 15:19:12 ( 10.05, 154.07)
25 07/07/2015 02:24:42 ( 10.02, 164.61) 07/07/2015 02:28:17 ( 22.65, 161.61)
26 07/07/2015 14:56:35 ( 22.67, 161.82) 07/07/2015 15:00:10 ( 10.05, 158.82)
27 07/08/2015 03:47:10 ( 10.03, 143.99) 07/08/2015 03:50:45 ( 22.66, 140.99)
28 07/08/2015 14:38:40 ( 18.68, 165.60) 07/08/2015 14:41:07 ( 10.05, 163.58)
29 07/08/2015 16:19:02 ( 22.66, 141.20) 07/08/2015 16:21:01 ( 15.68, 139.51)
30 07/09/2015 03:28:07 ( 10.04, 148.74) 07/09/2015 03:31:42 ( 22.66, 145.75)
31 07/09/2015 16:00:00 ( 22.66, 145.96) 07/09/2015 16:03:35 ( 10.04, 142.96)
32 07/10/2015 03:09:05 ( 10.04, 153.50) 07/10/2015 03:12:40 ( 22.67, 150.50)


NCC Satellite Cal/Val Overpasses Prediction Service
